Location: Asheville, NC
(35.6000°N, 82.5500°W)
Time: 20:19:54
(UTC-04:00)

BEESAT 2 - Pass Details

Date: 16 March 2018
Orbit: 502 x 532 km, 64.9° (Epoch: 24 June)

Event Time Altitude Azimuth Distance (km) Brightness Sun altitude
Rises 20:57:50 0° 228° (SW) 2,635 ? -16.8°
Reaches altitude 10° 21:00:08 10° 238° (WSW) 1,756 ? -17.3°
Maximum altitude 21:03:45 34° 304° (NW) 879 ? -18.0°
Drops below altitude 10° 21:07:25 10° 11° (N) 1,780 ? -18.7°
Sets 21:09:46 0° 21° (NNE) 2,677 ? -19.2°
